Location: Newark
(26.2000°N, 127.6833°E)
Time: 03:06:13
(UTC+00:00)

Envisat - Visible Passes

Search period start: 15 November 2019 00:00
Search period end: 25 November 2019 00:00
Orbit: 764 x 766 km, 98.1° (Epoch: 14 November)

Date Brightness Start Highest point End Pass type
(mag) Time Alt. Az. Time Alt. Az. Time Alt. Az.
15 Nov 2.9 09:39:41 10° SSE 09:44:45 85° ENE 09:49:50 10° N visible
16 Nov 3.6 09:03:39 10° SE 09:08:08 33° ENE 09:12:37 10° N visible
16 Nov 5.6 10:43:34 10° SW 10:47:06 19° W 10:50:39 10° NW visible
16 Nov 5.9 21:20:58 10° NE 21:24:51 22° E 21:28:42 10° SSE visible
17 Nov 3.9 10:05:21 10° S 10:10:13 49° W 10:15:08 10° NNW visible
18 Nov 2.9 09:28:30 10° SSE 09:33:31 64° ENE 09:38:30 10° N visible
19 Nov 5.2 10:31:40 10° SSW 10:35:47 25° W 10:39:55 10° NW visible
19 Nov 6.1 21:10:21 10° ENE 21:13:31 17° E 21:16:40 10° SE visible
20 Nov 3.4 09:53:56 10° S 09:58:57 66° W 10:03:59 10° NNW visible
21 Nov 3.2 09:17:26 10° SSE 09:22:17 48° ENE 09:27:07 10° N visible
21 Nov 6.1 10:59:15 10° WSW 11:01:25 13° W 11:03:34 10° WNW visible
22 Nov 4.7 10:19:56 10° SSW 10:24:28 33° W 10:29:01 10° NW visible
22 Nov 6.3 21:00:11 10° ENE 21:02:11 12° E 21:04:11 10° ESE visible
23 Nov 3.0 09:42:37 10° SSE 09:47:41 87° W 09:52:46 10° NNW visible
24 Nov 3.5 09:06:27 10° SE 09:11:03 36° ENE 09:15:40 10° N visible
24 Nov 5.8 10:46:49 10° SW 10:50:04 17° W 10:53:19 10° NW visible
24 Nov 5.7 21:23:43 10° NE 21:27:49 24° E 21:31:53 10° SSE visible
